This demonstration page uses our WeatherBlox Daily Observations layout. Learn more.

40.92945, -100.16068

Hourly Observations for August 28, 2018

Temp ( °F °C ) Dew Point ( °F °C ) Humidity (%) Winds ( mph kmh ) Pressure ( in mb ) Visibility ( mi km ) Precip ( " mm )
12:15 am 00:15 Clear 70 21 67 19.5 91 91 ENE 5 7 29.59 1002 10 16.0934 0 0
12:35 am 00:35 Clear 69 20.8 67 19.5 92 92 E 5 7 29.59 1002 10 16.0934 0 0
12:55 am 00:55 Clear 70 21.3 67 19.2 88 88 E 3 6 29.59 1002 10 16.0934 0 0
1:15 am 01:15 Clear 69 20.6 66 19 91 91 ENE 6 9 29.59 1002 10 16.0934 0 0
1:35 am 01:35 Clear 69 20.5 66 19 91 91 N 9 15 29.59 1002 10 16.0934 0 0
1:55 am 01:55 Clear 70 21 66 19.1 89 89 N 8 13 29.62 1003 10 16.0934 0 0
2:15 am 02:15 Clear 71 21.4 66 18.8 85 85 NNE 8 13 29.62 1003 10 16.0934 0 0
2:35 am 02:35 Clear 70 21.3 67 19.5 90 90 N 7 11 29.62 1003 10 16.0934 0 0
2:55 am 02:55 Clear 72 22 68 20 88 88 NE 6 9 29.62 1003 10 16.0934 0 0
3:15 am 03:15 Clear 72 22.1 68 20.1 88 88 N 12 19 29.65 1004 10 16.0934 0 0
3:35 am 03:35 Clear 70 21 64 17.8 82 82 N 10 17 29.65 1004 10 16.0934 0 0
3:55 am 03:55 Mostly Cloudy 70 21.1 67 19.2 89 89 N 15 24 29.65 1004 10 16.0934 0 0
4:15 am 04:15 Cloudy with Mist and Fog 70 20.9 67 19.5 92 92 N 20 31 29.71 1006 4 6.43736 0 0
4:35 am 04:35 Cloudy with Mist and Fog 67 19.6 65 18.3 92 92 NNE 20 31 29.71 1006 4 6.43736 0 0
4:55 am 04:55 Cloudy 67 19.4 64 17.9 91 91 N 24 39 29.74 1007 7 11.26538 0 0
5:15 am 05:15 Cloudy 66 19.1 63 17.4 90 90 NNE 15 24 29.74 1007 7 11.26538 0 0
5:35 am 05:35 Cloudy 67 19.5 59 15.1 76 76 NNE 21 33 29.77 1008 10 16.0934 0 0
5:55 am 05:55 Cloudy 66 19 57 13.8 72 72 NNE 17 28 29.74 1007 10 16.0934 0 0
6:15 am 06:15 Cloudy 65 18.6 56 13.6 73 73 NNE 14 22 29.77 1008 10 16.0934 0 0
6:35 am 06:35 Cloudy 65 18.5 55 13 71 71 NNE 17 28 29.77 1008 10 16.0934 0 0
6:55 am 06:55 Cloudy 65 18.2 56 13.3 73 73 NNE 13 20 29.8 1009 10 16.0934 0 0
7:15 am 07:15 Cloudy 65 18.1 55 13 72 72 N 13 20 29.83 1010 10 16.0934 0 0
7:35 am 07:35 Cloudy 64 17.8 55 13 74 74 NNE 15 24 29.85 1011 10 16.0934 0 0
7:55 am 07:55 Cloudy 64 17.5 55 12.8 74 74 NNE 15 24 29.85 1011 10 16.0934 0 0
8:15 am 08:15 Cloudy 63 17.1 55 12.8 76 76 NNE 14 22 29.85 1011 10 16.0934 0 0
8:35 am 08:35 Cloudy 62 16.8 55 13 78 78 NNE 14 22 29.88 1012 10 16.0934 0 0
8:55 am 08:55 Cloudy 62 16.5 55 12.8 79 79 N 16 26 29.85 1011 10 16.0934 0 0
9:15 am 09:15 Cloudy 62 16.7 55 12.8 78 78 N 15 24 29.88 1012 10 16.0934 0 0
9:35 am 09:35 Cloudy 62 16.5 54 12.3 76 76 NNE 17 28 29.88 1012 10 16.0934 0 0
9:55 am 09:55 Cloudy 61 16.1 54 12.1 77 77 N 18 30 29.94 1014 10 16.0934 0 0
10:15 am 10:15 Cloudy 61 16.3 54 12.4 78 78 N 14 22 29.91 1013 10 16.0934 0 0
10:35 am 10:35 Cloudy 62 16.7 54 12.2 75 75 N 15 24 29.91 1013 10 16.0934 0 0
10:55 am 10:55 Cloudy 62 16.7 54 12 74 74 N 13 20 29.94 1014 10 16.0934 0 0
11:15 am 11:15 Cloudy 61 16.3 54 12 76 76 N 18 30 29.97 1015 10 16.0934 0 0
11:35 am 11:35 Cloudy 62 16.7 54 12 74 74 N 18 30 29.94 1014 10 16.0934 0 0
11:55 am 11:55 Cloudy 63 17 54 12 73 73 N 17 28 29.94 1014 10 16.0934 0 0
12:15 pm 12:15 Cloudy 64 17.6 54 12.1 70 70 NNE 18 30 29.94 1014 10 16.0934 0 0
12:35 pm 12:35 Cloudy 64 17.5 54 12.1 71 71 N 17 28 29.94 1014 10 16.0934 0 0
12:55 pm 12:55 Cloudy 63 17.4 54 12 71 71 N 18 30 29.97 1015 10 16.0934 0 0
1:15 pm 13:15 Cloudy 65 18.3 54 12.3 68 68 N 17 28 29.97 1015 10 16.0934 0 0
1:35 pm 13:35 Cloudy 64 17.9 53 11.8 68 68 NNE 13 20 29.97 1015 10 16.0934 0 0
1:55 pm 13:55 Mostly Cloudy 67 19.2 55 12.6 66 66 N 13 20 29.97 1015 10 16.0934 0 0
2:15 pm 14:15 Mostly Cloudy 67 19.2 55 12.6 66 66 N 13 20 29.97 1015 10 16.0934 0 0
2:35 pm 14:35 Cloudy 68 20.1 55 12.6 62 62 N 16 26 29.97 1015 10 16.0934 0 0
2:55 pm 14:55 Partly Cloudy 68 20.2 54 12.4 61 61 N 14 22 29.94 1014 10 16.0934 0 0
3:15 pm 15:15 Partly Cloudy 70 21.3 55 12.9 59 59 N 13 20 29.94 1014 10 16.0934 0 0
3:35 pm 15:35 Partly Cloudy 70 21.1 55 12.6 58 58 N 13 20 29.94 1014 10 16.0934 0 0
3:55 pm 15:55 Mostly Cloudy with Haze 72 22 55 13 57 57 N 15 24 29.94 1014 4 6.43736 0 0
4:15 pm 16:15 Cloudy with Haze 71 21.5 55 12.6 57 57 N 15 24 29.94 1014 5 8.0467 0 0
4:35 pm 16:35 Cloudy with Haze 71 21.9 55 12.5 55 55 N 15 24 29.94 1014 5 8.0467 0 0
4:55 pm 16:55 Mostly Cloudy with Haze 73 22.5 55 13 55 55 N 15 24 29.94 1014 4 6.43736 0 0
5:15 pm 17:15 Hazy 73 22.6 54 12.2 52 52 N 14 22 29.94 1014 2.5 4.02335 0 0
5:35 pm 17:35 Hazy 73 22.7 55 12.7 53 53 N 15 24 29.94 1014 5 8.0467 0 0
5:55 pm 17:55 Cloudy with Haze 72 22.3 54 12.3 53 53 N 16 26 29.94 1014 5 8.0467 0 0
6:15 pm 18:15 Cloudy with Haze 72 22.3 53 11.8 52 52 N 15 24 29.94 1014 2 3.21868 0 0
6:35 pm 18:35 Partly Cloudy 72 22 53 11.6 52 52 N 13 20 29.94 1014 10 16.0934 0 0
6:55 pm 18:55 Sunny 71 21.5 54 12.1 55 55 NNE 12 19 29.94 1014 10 16.0934 0 0
7:15 pm 19:15 Hazy 70 20.9 53 11.6 55 55 NNE 8 13 29.94 1014 5 8.0467 0 0
7:35 pm 19:35 Hazy 68 19.8 53 11.9 61 61 N 7 11 29.97 1015 5 8.0467 0 0
7:55 pm 19:55 Hazy 66 18.7 54 12 65 65 NNE 6 9 29.97 1015 5 8.0467 0 0
8:15 pm 20:15 Hazy 63 17.1 54 12.2 73 73 N 5 7 29.97 1015 5 8.0467 0 0
8:35 pm 20:35 Hazy 61 16 55 12.5 80 80 N 3 6 30 1016 5 8.0467 0 0
8:55 pm 20:55 Hazy 60 15.7 55 12.6 82 82 N 3 6 30 1016 5 8.0467 0 0
9:15 pm 21:15 Clear 60 15.5 55 12.5 82 82 Calm 30.03 1017 10 16.0934 0 0
9:35 pm 21:35 Clear 59 15 54 12.3 84 84 N 3 6 30.03 1017 10 16.0934 0 0
9:55 pm 21:55 Clear 58 14.3 54 12.3 88 88 N 3 6 30.06 1018 10 16.0934 0 0
10:15 pm 22:15 Clear 57 14.1 53 11.6 85 85 N 5 7 30.06 1018 10 16.0934 0 0
10:35 pm 22:35 Clear 56 13.4 53 11.5 88 88 N 5 7 30.09 1019 10 16.0934 0 0
10:55 pm 22:55 Clear 56 13.5 52 11.2 86 86 N 3 6 30.09 1019 10 16.0934 0 0
11:15 pm 23:15 Clear 56 13.6 52 11.3 86 86 Calm 30.09 1019 10 16.0934 0 0
11:35 pm 23:35 Clear 55 12.8 52 11.3 91 91 Calm 30.09 1019 10 16.0934 0 0
11:55 pm 23:55 Clear 55 12.6 52 11 90 90 Calm 30.12 1020 10 16.0934 0 0

Powered by AerisWeather